This is the latest recevied weather packets stored in our database for station/object OE3UKW. If no packets are shown the sender has not sent any weather packets the latest 10 day(s).
| Time | Temp. | Humidity | Pressure | Rain* | Wind** | Luminosity | Snow |
|---|---|---|---|---|---|---|---|
| 1778104273 | 17.22° C | 54% | 1007.8 hPa | 0 mm | - | 0 W/m² | - |
| 1778103673 | 17.22° C | 54% | 1007.6 hPa | 0 mm | - | 0 W/m² | - |
| 1778103073 | 17.22° C | 53% | 1007.5 hPa | 0 mm | - | 0 W/m² | - |
| 1778102473 | 17.22° C | 53% | 1007.3 hPa | 0 mm | - | 0 W/m² | - |
| 1778101873 | 17.78° C | 53% | 1007.1 hPa | 0 mm | - | 0 W/m² | - |
| 1778101273 | 17.78° C | 52% | 1007.2 hPa | 0 mm | - | 0 W/m² | - |
| 1778100673 | 17.78° C | 52% | 1007.2 hPa | 0 mm | - | 0 W/m² | - |
| 1778100073 | 17.78° C | 52% | 1007 hPa | 0 mm | - | 0 W/m² | - |
| 1778099473 | 17.78° C | 51% | 1007 hPa | 0 mm | - | 0 W/m² | - |
| 1778098873 | 18.33° C | 50% | 1007 hPa | 0 mm | - | 0 W/m² | - |
| 1778098273 | 18.33° C | 50% | 1006.9 hPa | 0 mm | - | 0 W/m² | - |
| 1778097673 | 18.89° C | 49% | 1006.9 hPa | 0 mm | - | 0 W/m² | - |
| 1778097073 | 18.89° C | 48% | 1006.7 hPa | 0 mm | - | 0 W/m² | - |
| 1778096473 | 18.89° C | 49% | 1006.4 hPa | 0 mm | - | 0 W/m² | - |
| 1778095873 | 18.33° C | 49% | 1006.3 hPa | 0 mm | - | 0 W/m² | - |
| 1778095273 | 18.89° C | 49% | 1006.3 hPa | 0 mm | - | 0 W/m² | - |
| 1778094673 | 18.89° C | 48% | 1006.3 hPa | 0 mm | - | 0 W/m² | - |
| 1778094073 | 19.44° C | 48% | 1006.1 hPa | 0 mm | - | 0 W/m² | - |
| 1778093473 | 19.44° C | 47% | 1006 hPa | 0 mm | - | 0 W/m² | - |
| 1778092873 | 20° C | 46% | 1005.9 hPa | 0 mm | - | 0 W/m² | - |
| 1778092273 | 20° C | 46% | 1005.6 hPa | 0 mm | - | 0 W/m² | - |
| 1778091673 | 20° C | 46% | 1005.5 hPa | 0 mm | - | 0 W/m² | - |
| 1778091073 | 20.56° C | 46% | 1005.6 hPa | 0 mm | - | 5 W/m² | - |
| 1778090473 | 20.56° C | 45% | 1005.3 hPa | 0 mm | - | 16 W/m² | - |
| 1778089873 | 20.56° C | 45% | 1005.3 hPa | 0 mm | - | 28 W/m² | - |
* Rain latest hour (hover to see other rain measurements)
** Current wind speed in m/s (hover to see current wind gust speed)